Theta_e
307 299 297 297 299 300 301 302 302 301 302 301 299 297 294 294 293 296 298 297 299 295 296 297 298 298 299 299 301 302 296 295 296 296 294 294 295 296 298 301 304 306 309 313 315 315 318 320 321 322 322 322 322 323 323 322 321 319 319 318 318 320 321 321 320 319 319 318 317 316 318 318 319 319 319 320 320 321 322 321 322 322 322 321 321 320
305 298 298 301 302 303 302 303 303 303 302 300 298 295 295 292 294 295 298 298 296 297 293 294 294 294 296 298 298 296 294 296 298 298 298 297 295 296 297 299 301 304 305 305 309 313 315 318 319 321 321 319 320 321 322 322 322 321 319 318 319 320 320 321 321 321 320 320 320 319 319 319 319 319 318 320 321 322 322 322 322 321 321 321 321 320
298 297 300 303 304 304 304 303 303 301 300 299 298 295 292 294 292 293 291 291 293 294 293 289 290 294 296 297 298 297 298 299 300 299 300 300 298 296 296 297 300 301 302 302 306 310 313 316 318 320 321 321 322 322 322 323 322 322 320 319 319 320 320 321 322 321 320 321 321 320 318 319 318 319 320 321 321 321 321 322 322 321 321 321 321 321
294 297 302 304 305 303 302 302 301 300 300 298 295 294 293 292 294 291 292 289 292 293 289 287 287 292 292 293 295 296 297 299 300 300 299 300 300 300 299 298 298 299 301 302 304 307 310 313 317 318 320 321 321 321 321 322 322 323 321 321 320 320 320 321 321 320 322 321 321 321 319 319 320 319 319 320 319 318 319 320 321 321 322 321 321 321
296 299 304 304 304 303 300 301 300 299 297 298 298 295 295 292 294 294 291 288 288 292 290 291 291 294 295 295 297 298 295 296 297 298 298 299 300 301 302 299 299 299 300 302 303 305 308 310 313 317 320 321 321 322 322 322 323 323 323 322 321 321 320 321 320 320 321 319 317 317 315 315 315 316 315 316 318 319 319 319 320 321 321 321 321 321
297 302 306 303 303 303 301 299 300 299 297 297 298 298 297 296 295 287 289 291 286 287 287 292 284 284 285 287 292 295 291 294 295 295 297 299 300 299 299 300 300 300 300 302 303 305 307 310 312 315 318 319 321 321 322 323 323 323 324 323 323 322 321 321 321 320 320 319 319 317 317 316 316 316 316 317 318 318 318 319 320 319 320 321 321 321
299 304 304 302 302 301 301 300 301 301 297 295 296 299 298 297 296 288 287 289 285 285 288 288 288 285 286 290 291 290 288 292 293 293 297 298 299 299 300 300 300 300 300 300 302 304 306 308 311 313 316 318 320 321 323 323 323 324 324 324 324 323 322 322 321 320 319 319 319 319 319 319 318 317 318 320 319 319 319 319 319 319 318 320 320 320
301 302 302 302 301 299 299 298 301 302 297 294 297 301 297 295 292 289 290 289 282 284 288 284 286 283 286 292 293 295 293 294 294 295 295 296 297 298 300 301 301 301 300 301 301 303 305 307 310 312 315 318 320 322 323 323 324 324 324 324 324 324 322 323 322 320 320 320 319 319 319 319 319 319 319 319 319 318 317 319 319 319 319 319 320 320
302 299 300 298 299 298 297 300 302 303 298 296 297 299 295 296 295 291 291 285 285 287 285 283 286 286 283 286 287 288 291 293 295 297 298 297 297 297 298 300 300 301 301 301 301 302 304 306 309 311 314 317 320 321 321 323 323 324 324 323 324 324 323 323 322 321 320 320 320 320 319 318 318 319 319 315 314 317 317 318 317 318 319 319 319 320
302 302 302 301 299 297 296 299 303 303 297 297 298 298 296 295 294 293 289 289 286 285 285 284 284 282 287 287 291 289 289 294 297 297 298 299 299 297 298 298 299 299 299 300 301 302 304 306 308 311 313 315 318 320 321 321 322 322 322 322 322 323 324 323 322 321 321 320 319 320 319 319 319 318 317 314 316 316 315 317 317 317 318 318 318 319
299 304 304 302 299 299 297 299 302 303 300 301 301 298 295 293 289 288 287 286 286 284 285 285 283 284 284 287 291 291 291 294 296 296 297 296 295 295 296 297 299 299 298 298 299 300 302 305 307 308 311 313 315 317 317 318 319 320 321 322 321 322 323 322 322 322 321 321 320 320 320 320 319 319 318 317 317 316 314 317 316 316 317 317 318 318
298 301 300 299 305 299 303 297 299 303 302 302 294 294 296 291 291 288 286 288 286 285 286 285 287 286 283 285 285 292 291 290 291 293 295 295 296 296 295 296 296 297 298 298 297 298 299 299 300 303 308 310 311 311 314 316 316 317 319 320 320 321 321 322 322 322 322 322 321 321 321 321 321 320 319 319 318 318 317 317 317 315 315 318 319 319
293 297 298 297 301 304 300 299 295 299 301 300 297 297 291 286 288 285 287 285 285 286 288 285 287 285 288 295 289 292 292 294 293 294 296 295 294 294 295 295 295 295 295 297 297 297 297 298 299 301 305 307 309 311 313 315 316 317 317 318 319 320 320 321 321 321 321 322 322 322 321 322 321 321 320 320 319 318 318 318 318 317 318 319 321 322
291 296 295 297 299 302 303 295 291 292 297 298 295 293 290 284 284 284 285 285 285 286 286 286 286 285 289 293 297 300 302 302 299 296 294 294 296 297 299 298 296 294 294 296 297 297 297 298 298 300 303 306 309 310 313 314 314 315 316 317 318 320 319 319 319 320 320 321 322 322 322 323 322 321 321 321 321 319 319 318 318 318 318 318 320 321
285 286 293 297 294 301 302 301 299 297 297 298 300 297 292 289 285 283 285 283 285 285 285 285 285 282 285 289 289 290 293 294 294 294 294 294 294 295 293 292 292 292 293 294 295 296 297 298 298 299 300 303 306 309 311 312 314 314 315 315 316 318 317 318 319 319 319 321 321 322 322 322 322 322 321 321 321 319 318 317 317 318 318 318 319 319
290 290 296 301 296 303 300 301 301 298 296 296 296 297 291 291 287 284 282 281 281 282 281 282 286 283 290 291 295 296 293 292 293 292 290 292 292 290 290 292 293 294 295 292 293 295 295 295 294 295 296 299 302 306 308 309 311 313 314 315 316 317 317 317 316 319 320 320 320 319 320 321 319 317 318 318 316 318 318 317 318 318 318 318 319 318
291 289 296 298 297 301 301 298 298 302 289 294 296 292 294 292 289 281 280 281 282 280 285 279 284 287 290 297 300 301 299 298 292 290 288 290 291 288 289 291 292 293 292 290 292 294 295 292 293 295 297 298 298 301 305 308 310 312 313 313 314 315 314 314 314 317 318 319 318 318 319 319 318 318 318 319 317 317 317 317 317 317 317 317 316 317
290 289 296 298 293 300 296 302 297 301 297 295 291 295 294 295 293 288 281 273 274 277 277 280 285 284 282 286 287 286 290 295 292 292 292 290 287 288 292 292 293 293 292 289 289 290 291 292 294 294 295 296 298 299 301 305 306 309 311 311 313 312 312 312 313 314 315 316 316 316 315 316 317 318 318 318 318 317 315 315 315 315 315 315 316 316
295 286 289 291 295 293 296 300 295 296 296 298 296 300 296 288 288 287 284 275 276 275 270 274 278 280 285 290 291 291 287 290 287 285 286 290 289 290 291 292 292 291 289 290 291 291 291 292 292 293 294 293 293 293 293 295 297 300 301 303 308 311 311 310 309 307 308 311 314 314 314 314 315 317 318 318 316 314 315 315 315 315 316 314 313 312
296 288 288 292 294 293 295 298 289 294 292 293 298 298 295 292 291 287 288 282 281 275 271 273 274 280 286 290 292 294 295 291 290 288 289 289 290 291 291 292 292 292 292 291 291 292 293 292 291 291 291 291 292 292 292 292 292 297 301 302 303 303 303 303 306 306 309 309 311 312 312 313 315 315 316 314 314 314 315 315 314 314 312 314 312 313
292 292 286 288 292 296 290 295 293 295 290 289 294 292 291 289 289 289 286 283 282 273 272 268 274 279 282 287 292 295 296 296 294 294 293 292 292 291 292 292 291 291 291 291 292 293 293 292 291 291 289 290 289 288 289 292 294 295 295 299 300 304 302 303 305 305 309 308 309 310 311 310 308 309 310 311 311 312 312 312 310 313 312 306 309 309
289 290 288 287 289 291 294 299 299 298 297 295 295 293 294 290 287 287 286 285 278 276 275 271 280 278 283 289 294 294 296 295 294 293 294 293 294 295 294 291 289 290 290 291 292 291 291 290 290 289 288 287 288 290 290 290 291 291 292 294 294 295 299 301 302 304 306 304 304 304 304 304 304 308 307 311 309 309 310 309 309 307 302 305 308 304
294 290 290 286 290 292 294 290 289 297 298 294 296 292 294 290 289 287 284 286 282 285 278 275 273 282 289 288 291 293 294 292 291 290 293 294 294 293 292 289 288 289 291 291 290 290 289 288 288 288 289 290 291 291 289 288 291 292 291 291 292 295 295 295 297 296 296 297 298 300 301 302 303 303 304 307 306 305 304 302 299 298 301 301 300 296
295 290 288 286 288 290 292 292 294 294 296 292 293 290 293 292 293 292 290 284 286 280 283 281 278 284 285 284 286 288 286 285 285 286 291 293 293 291 288 287 288 288 289 288 288 287 287 286 286 289 290 290 289 288 289 290 289 289 289 291 291 293 293 292 292 292 293 293 296 297 296 299 297 298 299 302 300 300 298 297 297 295 297 298 296 297
291 290 291 285 285 286 288 291 289 290 293 292 292 293 295 296 293 284 281 278 283 286 287 284 281 284 285 284 284 284 284 284 287 285 286 290 290 289 289 289 288 288 288 289 290 289 287 288 289 290 290 290 289 287 287 289 291 290 292 289 291 292 291 291 291 295 295 294 294 292 295 292 292 296 296 298 297 298 296 295 295 295 297 296 298 299
288 292 290 283 280 280 279 281 283 286 290 293 294 294 294 294 290 288 288 282 284 284 287 280 286 282 283 285 288 287 284 286 285 285 284 287 289 290 289 290 289 289 290 289 289 289 290 289 286 286 288 289 289 290 291 290 290 290 290 292 289 290 288 289 288 292 291 292 295 294 294 290 290 294 295 295 295 295 294 293 294 294 294 297 301 295
289 293 292 291 288 286 288 291 295 295 293 290 291 292 293 294 295 293 290 285 285 284 285 289 287 283 287 289 287 289 287 288 287 286 288 288 288 287 287 287 288 288 289 289 288 288 286 287 289 289 289 291 290 289 290 289 291 289 289 291 290 290 291 289 288 289 292 290 295 293 294 292 291 290 292 293 294 292 292 293 292 294 295 292 295 295
287 290 291 292 292 293 293 293 296 295 292 292 291 291 293 292 292 291 289 288 292 283 282 289 286 286 285 286 288 289 290 286 286 286 287 286 286 288 289 287 289 287 287 287 287 288 290 290 288 289 289 288 290 289 289 289 289 290 290 291 291 290 291 291 290 289 292 291 292 292 292 290 292 292 292 293 293 294 293 293 292 293 291 289 294 293
292 289 292 292 291 290 292 295 296 295 294 294 293 293 291 292 291 288 290 292 287 287 286 291 287 285 288 290 292 292 289 289 289 289 288 287 286 285 286 288 289 289 289 289 290 290 290 291 292 291 290 290 287 288 289 289 288 287 287 287 290 292 291 292 293 293 294 291 293 293 293 292 293 294 294 294 295 294 294 293 292 290 290 291 291 292
294 290 290 291 289 287 290 293 295 294 294 293 293 293 293 292 292 292 292 294 291 290 292 291 287 290 293 294 295 295 292 290 288 286 287 288 288 287 286 287 288 290 290 291 292 292 291 292 291 290 290 289 289 289 289 290 290 290 290 290 290 292 293 293 294 295 295 294 295 294 293 294 294 295 294 294 294 293 291 291 290 290 290 291 290 290
296 287 292 289 287 285 287 290 293 294 293 291 292 293 293 293 293 293 294 293 293 292 292 291 289 290 294 296 296 296 297 293 291 290 289 288 288 289 288 288 288 289 290 291 291 292 292 291 290 289 289 290 290 290 290 291 291 289 289 290 291 292 294 295 296 296 296 296 295 294 294 295 295 294 294 294 292 291 291 291 290 290 290 289 289 290
295 288 292 289 287 284 285 287 290 292 292 291 290 291 291 291 289 292 291 294 291 290 292 291 289 290 294 293 294 294 297 299 298 296 293 294 293 292 291 291 290 290 290 290 291 291 291 291 290 290 291 292 291 290 290 291 291 290 292 291 291 292 294 295 297 297 297 296 295 295 295 295 294 293 292 291 292 291 290 289 289 290 290 289 289 289
293 289 288 288 286 286 286 287 288 289 288 286 287 291 292 293 294 295 295 296 295 295 291 288 290 296 296 293 294 294 296 297 297 299 300 298 297 296 295 294 294 293 293 293 292 292 291 291 291 292 292 292 292 292 292 292 291 292 293 292 292 291 294 295 296 297 297 296 295 295 295 294 293 292 291 291 291 290 289 289 289 289 289 289 289 287
293 291 288 290 286 287 285 286 288 286 280 282 295 297 295 293 293 291 292 294 295 296 294 296 297 294 293 295 297 296 294 297 300 301 302 302 301 300 298 297 296 296 295 295 295 295 294 293 291 291 291 292 293 294 292 290 292 294 292 290 289 292 293 295 296 296 296 295 295 295 295 293 292 292 292 291 290 289 289 289 290 289 289 289 287 288
290 291 289 289 288 283 285 287 284 279 281 294 298 298 298 297 296 294 295 295 296 296 297 296 297 296 295 297 297 298 298 298 297 298 300 301 301 301 302 303 303 302 300 297 296 294 293 293 292 290 289 290 291 290 290 290 292 291 290 290 291 291 293 294 295 295 295 295 295 294 293 293 292 291 291 291 289 289 289 289 290 289 288 288 289 289
290 291 289 287 286 284 284 285 278 280 289 293 295 296 297 297 296 294 292 295 296 296 297 296 297 299 297 293 294 295 296 297 296 296 298 301 301 301 301 301 302 301 301 302 300 301 300 298 295 293 292 292 290 289 291 293 292 291 290 288 291 290 292 294 294 295 294 294 294 293 293 293 292 291 291 290 289 289 289 289 290 289 288 288 288 288
295 293 291 286 288 283 283 285 284 289 287 289 290 291 294 293 293 292 288 292 296 297 297 296 297 298 298 299 295 290 288 290 290 296 298 296 295 293 296 299 301 301 302 302 301 300 301 299 295 294 292 290 290 291 291 292 290 291 289 288 289 289 290 292 293 293 293 293 293 293 293 293 292 291 291 290 289 289 289 289 289 289 288 288 287 287
296 291 291 289 284 287 285 282 284 283 281 286 293 296 299 300 298 295 291 290 294 298 299 298 297 298 298 297 290 289 290 292 293 297 301 295 296 298 296 297 299 300 301 301 301 300 298 296 292 290 291 290 289 290 290 289 290 290 290 289 288 288 289 291 292 293 293 293 293 293 293 293 292 291 290 290 289 289 289 289 288 288 288 289 288 287
292 294 292 290 286 286 285 282 282 281 285 292 292 295 296 295 296 295 290 287 295 296 299 298 298 298 298 295 290 291 292 291 293 298 293 297 297 298 299 299 299 299 299 299 300 299 299 299 294 290 287 287 288 290 289 288 289 290 290 289 288 288 289 290 291 291 292 293 293 293 293 292 292 291 290 290 290 290 289 289 288 288 287 288 288 287
290 290 289 288 286 286 286 284 282 286 287 290 292 293 294 297 299 294 283 284 296 297 298 298 298 298 298 294 292 293 294 291 294 297 294 296 298 299 299 300 300 298 297 297 296 296 297 296 291 287 287 288 290 290 289 288 289 290 291 290 289 288 289 291 292 292 292 291 292 292 292 292 291 291 290 290 289 289 289 288 288 287 287 287 287 287
285 286 288 285 286 286 286 285 286 287 289 289 293 294 296 298 296 286 281 290 295 298 298 299 298 299 298 293 294 293 296 300 301 302 294 293 293 296 297 298 300 300 300 298 297 295 295 295 293 292 291 290 290 288 288 288 289 290 290 290 288 289 291 293 292 289 290 290 291 291 291 291 291 290 290 290 289 289 288 288 288 287 287 286 286 286
284 285 284 287 285 285 286 285 285 287 289 290 290 296 298 294 285 284 295 295 295 296 297 298 298 297 296 297 296 298 300 301 301 299 290 291 294 297 296 294 294 294 293 292 293 293 295 294 292 289 286 286 289 289 288 289 290 290 289 289 289 291 292 291 289 288 289 290 290 291 291 290 290 290 290 289 288 288 288 287 287 287 287 287 286 286
285 285 282 284 286 285 285 284 283 281 288 293 293 293 296 290 289 295 289 288 287 289 293 294 297 297 297 297 297 298 298 297 296 297 297 292 291 293 293 292 291 293 295 295 294 293 292 294 294 293 290 288 288 288 288 289 289 290 289 289 290 291 291 287 288 288 289 289 289 289 289 289 289 289 289 288 288 288 287 287 286 286 287 286 286 286
288 286 283 285 287 283 284 283 284 288 286 292 295 290 293 291 290 286 289 292 286 286 291 292 293 293 293 296 296 295 296 296 296 295 294 293 292 293 292 290 290 290 290 291 292 293 290 291 292 292 291 289 287 287 288 289 289 289 289 290 292 290 286 287 287 288 288 288 289 289 289 289 289 289 289 288 288 288 287 286 286 286 287 286 286 286
288 285 287 285 287 287 286 288 289 286 287 290 290 287 292 290 286 287 287 289 289 287 286 290 292 291 291 293 294 294 294 294 296 296 294 293 290 291 292 293 291 291 292 292 293 291 288 291 291 291 290 287 285 286 287 288 289 289 289 291 289 288 287 287 287 287 288 288 288 288 288 288 288 288 288 288 288 288 288 286 286 286 286 286 286 286
289 289 288 287 286 287 289 291 289 288 287 288 288 286 289 288 286 285 288 289 289 286 285 286 285 286 286 287 289 287 288 289 288 290 289 290 291 290 289 289 289 289 289 289 289 289 289 288 287 288 289 289 285 286 286 287 288 289 290 291 289 288 287 287 287 287 287 287 288 288 288 288 288 288 288 288 288 288 288 287 286 287 286 286 286 286
288 288 287 284 285 288 285 290 290 289 287 287 291 291 289 287 288 285 287 289 288 283 284 284 286 287 287 284 288 289 289 288 288 289 287 287 288 289 289 289 289 289 289 289 290 288 286 285 288 288 288 289 287 286 286 287 287 289 289 285 285 286 286 287 287 287 287 287 288 287 287 288 288 288 288 288 288 288 288 287 287 287 286 286 286 286
284 288 288 286 286 285 286 287 288 288 289 290 291 291 292 290 289 286 287 287 287 284 286 286 283 285 283 285 285 286 287 286 286 288 287 286 287 288 288 289 289 288 288 287 287 284 284 285 288 288 288 289 290 287 285 286 287 287 285 282 285 286 286 286 287 287 287 287 288 288 288 288 286 287 288 288 288 288 287 287 287 287 287 286 287 287
286 290 283 285 285 286 286 286 287 288 290 292 291 290 292 292 291 292 291 289 287 287 285 283 283 286 284 288 285 285 285 286 286 287 287 286 285 286 288 288 287 287 287 287 285 282 286 286 287 288 288 289 289 284 284 284 285 283 284 283 284 286 286 287 286 287 287 287 288 288 288 288 288 288 288 287 287 287 288 287 287 287 287 286 287 287
287 284 285 285 283 283 283 285 286 285 285 288 289 292 294 293 291 291 291 291 290 289 289 288 287 284 285 285 285 285 286 289 287 285 286 286 286 287 287 286 285 284 284 284 282 280 281 282 285 287 287 288 284 282 282 282 281 280 281 283 284 286 287 287 287 287 287 287 288 288 288 288 287 288 287 287 287 285 284 283 286 287 286 282 283 285
286 286 286 284 284 283 286 288 290 291 289 290 293 293 292 292 291 291 292 292 292 290 289 288 289 290 288 287 284 285 286 287 289 287 285 285 286 287 286 286 286 285 284 280 279 282 281 283 282 281 283 285 279 278 278 279 276 277 277 281 283 285 286 286 287 287 287 287 287 287 287 287 287 287 287 287 286 285 283 281 282 284 285 284 283 284
Wind_Speed
7 12 14 18 18 15 11 11 5 8 12 10 10 8 7 7 4 1 4 2 3 3 11 14 16 14 10 11 13 12 0 3 7 9 8 7 8 9 10 12 13 13 17 11 7 6 9 11 10 9 8 8 9 10 10 11 11 11 11 10 12 10 9 9 8 8 8 8 6 5 9 9 7 8 7 8 8 8 8 8 8 8 8 7 7 7
9 12 18 18 10 13 13 10 4 6 6 9 10 7 9 7 9 3 4 1 3 5 5 6 9 12 12 12 11 5 4 10 11 10 9 10 9 9 11 14 14 15 7 4 5 8 7 8 10 9 9 8 11 11 11 13 13 11 11 12 12 9 10 11 11 9 9 9 9 9 9 8 8 8 8 9 8 9 8 8 8 8 7 8 8 7
13 20 20 14 10 11 10 12 9 7 7 8 10 8 6 8 1 2 1 2 1 2 8 0 6 12 11 12 12 9 13 13 11 10 12 9 10 10 11 12 12 9 11 6 10 7 8 10 10 10 10 11 13 12 13 13 11 12 12 12 11 11 11 11 11 10 10 8 8 8 6 8 6 6 7 7 7 6 7 8 8 7 7 8 8 8
16 20 12 12 13 15 11 12 10 4 5 8 7 8 11 4 7 5 3 1 2 4 1 0 4 10 7 8 14 13 11 11 9 11 13 11 13 13 14 12 11 12 13 11 11 12 10 10 10 10 11 12 10 10 11 12 13 12 12 12 12 11 11 10 11 11 10 9 9 8 6 5 7 6 6 6 6 6 6 9 8 8 8 8 8 8
14 3 13 11 14 15 14 13 11 9 9 5 9 7 6 5 4 5 2 1 1 1 1 3 7 11 8 11 10 10 8 9 11 9 9 10 11 11 7 5 11 14 12 12 11 10 8 8 11 13 14 11 11 13 13 13 13 11 14 14 13 12 12 11 11 12 9 7 5 5 3 1 3 2 3 4 8 9 8 7 9 10 7 8 9 8
5 11 14 15 13 12 14 12 14 11 10 7 6 8 7 5 5 2 3 4 2 3 1 1 3 7 4 6 12 6 5 5 4 6 12 15 13 8 10 13 9 8 10 13 14 14 13 13 11 11 11 11 12 13 14 13 14 12 12 12 12 11 11 12 11 11 10 9 9 8 8 8 7 8 8 11 13 9 9 11 6 6 8 9 9 8
5 8 17 16 14 12 13 12 9 8 9 8 7 7 4 5 6 6 5 5 1 5 2 1 8 10 4 6 5 4 3 11 4 6 13 12 11 9 12 11 11 12 11 9 7 8 10 11 10 12 13 13 14 15 13 11 12 13 13 12 13 12 11 10 10 11 10 9 9 12 12 11 11 12 11 9 7 7 7 6 7 7 6 8 9 9
7 9 16 15 15 15 12 13 12 15 9 7 1 12 5 5 8 6 7 6 1 1 1 3 2 4 10 11 4 6 7 10 9 11 14 11 9 10 11 13 13 13 11 11 12 12 12 12 14 16 16 14 16 15 11 12 11 14 15 13 13 11 10 10 9 11 12 12 11 11 11 11 12 13 13 9 8 5 5 7 8 6 7 7 8 9
20 16 20 18 17 14 16 11 8 10 6 2 1 10 7 8 6 5 4 3 1 1 4 1 0 1 7 8 4 1 5 9 13 14 12 11 12 12 12 12 12 13 12 12 13 13 14 13 14 13 13 15 15 13 13 13 14 14 11 11 9 11 11 10 11 12 13 13 12 12 11 12 11 11 10 4 5 6 6 7 5 7 7 7 7 8
4 11 14 16 13 12 4 6 10 13 5 2 6 11 8 7 6 3 3 3 0 1 8 5 1 2 12 5 4 0 3 14 13 11 11 10 11 10 10 10 9 7 7 9 13 13 13 13 14 14 14 12 14 12 12 10 8 8 8 10 11 12 10 10 11 12 13 13 11 11 12 14 13 10 7 4 6 6 5 8 7 6 6 6 6 6
1 5 5 10 10 6 6 2 6 6 3 6 7 10 7 7 4 3 4 2 3 6 6 7 4 3 7 4 8 6 9 6 6 7 8 6 4 4 6 7 8 8 8 9 11 12 13 11 12 11 13 13 9 8 7 8 8 8 9 11 12 13 10 10 12 13 14 12 12 13 13 15 15 11 8 7 8 6 6 8 6 6 5 5 6 5
3 6 6 3 9 4 9 4 3 6 12 9 4 5 8 4 2 2 1 1 4 6 2 8 8 5 6 6 5 6 4 4 5 7 8 6 7 6 5 6 7 7 8 8 8 10 10 7 7 6 9 9 8 6 7 7 7 8 9 9 12 11 12 11 12 12 13 12 13 13 13 14 14 10 10 12 12 9 10 8 7 5 5 6 6 6
5 12 6 5 3 21 10 10 2 6 6 5 9 7 10 3 4 4 2 8 10 5 1 3 7 1 14 19 2 6 8 9 7 9 10 8 7 7 6 6 6 5 5 7 9 9 9 10 10 9 10 8 8 9 10 11 10 10 9 11 13 14 12 12 10 12 13 12 13 13 14 14 11 10 11 11 10 8 9 7 7 6 8 6 7 7
3 4 3 5 5 7 17 13 4 7 9 10 12 12 10 6 7 10 5 2 2 2 2 6 1 6 6 13 10 20 20 14 9 8 8 8 9 9 9 8 6 5 6 8 8 9 9 10 10 10 11 11 11 11 12 11 10 10 10 11 13 16 11 10 10 11 11 14 14 12 13 12 10 11 11 11 10 8 8 7 8 8 8 8 9 7
11 11 9 15 10 8 17 18 19 11 15 13 7 12 8 6 4 7 5 7 4 3 0 3 3 8 5 7 1 5 5 7 8 6 6 7 8 8 6 5 7 9 9 8 7 9 10 11 11 11 11 10 10 10 11 9 10 9 10 10 13 13 10 11 13 11 13 13 12 11 11 11 10 11 9 10 9 8 8 7 8 8 7 8 7 8
14 2 6 14 2 21 18 10 10 11 8 6 4 3 2 9 4 2 1 4 3 4 1 3 8 2 8 6 15 9 7 9 9 8 6 9 7 5 7 8 9 9 9 5 7 8 8 7 6 6 6 7 7 8 8 8 8 9 11 11 14 15 13 12 12 12 13 12 9 10 11 12 10 8 8 8 7 7 7 8 9 9 8 8 7 7
9 12 9 4 7 14 14 8 5 15 11 7 6 11 8 3 8 6 3 2 4 3 11 2 8 7 8 16 17 20 14 13 6 6 5 9 8 5 8 8 8 8 7 6 7 7 7 5 6 7 8 7 7 7 9 11 11 13 12 11 12 12 8 9 10 11 10 10 10 12 11 9 9 10 11 10 9 9 8 8 8 8 8 7 6 6
15 9 13 17 12 11 5 10 5 7 5 7 9 8 4 2 4 6 4 2 1 6 6 3 14 6 2 14 2 3 7 16 7 7 7 7 6 7 10 7 8 8 7 4 4 5 5 5 7 7 6 7 9 10 9 10 8 8 9 8 10 8 9 8 9 10 10 10 10 9 9 9 10 9 9 9 10 8 7 7 7 6 6 7 8 8
7 6 3 3 7 4 1 10 2 1 1 11 10 5 10 4 7 2 6 5 5 6 3 4 1 6 11 15 3 7 4 7 6 4 4 7 7 9 8 9 7 7 5 5 5 5 6 7 8 7 7 5 5 5 5 5 4 5 5 6 7 10 10 8 7 6 6 6 7 7 8 8 8 9 10 10 8 6 8 9 8 8 8 6 6 7
4 6 1 2 7 4 4 9 13 11 2 3 7 9 2 1 4 6 8 1 3 7 1 6 2 10 11 9 8 16 12 8 7 5 5 8 7 7 8 8 8 8 7 6 6 7 7 7 5 4 5 5 5 5 4 4 4 6 7 7 7 6 5 5 7 8 8 8 7 7 6 8 9 9 8 7 7 8 9 8 7 8 6 8 7 7
6 1 8 2 3 9 10 9 14 16 14 6 9 8 2 2 2 3 1 5 6 5 5 2 5 8 8 7 11 18 16 14 10 10 8 7 7 9 9 9 6 7 6 7 8 8 7 5 2 2 1 2 2 2 4 5 7 7 5 7 7 9 8 8 8 8 9 8 9 9 10 9 7 7 5 6 7 8 7 6 7 7 7 4 5 5
4 6 11 5 5 11 10 14 19 19 17 14 14 13 13 11 7 10 11 2 3 3 6 6 15 0 5 3 12 11 13 11 9 9 11 9 10 11 9 8 7 6 8 8 9 6 5 3 2 0 1 1 2 3 4 4 3 4 5 6 5 5 7 8 9 10 9 7 7 8 7 6 4 5 5 7 6 7 7 6 6 5 3 5 6 4
7 3 11 12 11 12 8 1 3 6 9 7 11 6 6 3 3 6 12 9 2 4 5 4 3 11 8 5 8 10 8 6 6 5 9 9 10 9 8 6 6 7 8 8 7 5 5 3 3 3 4 5 6 4 3 2 4 5 5 5 5 7 7 6 7 5 4 5 6 6 5 4 5 5 6 6 6 6 6 5 4 4 5 5 4 3
6 6 10 2 4 5 5 4 7 3 9 4 5 4 9 12 13 12 7 2 7 0 3 4 7 8 3 1 4 5 5 5 6 5 8 9 8 7 6 6 7 7 8 6 5 4 4 3 2 1 3 4 4 4 5 5 4 4 4 5 5 6 6 5 4 5 5 5 5 5 5 6 5 5 5 6 5 5 4 5 4 4 4 5 4 4
9 7 16 10 6 2 6 4 2 5 3 7 10 11 13 14 9 2 6 1 4 11 9 8 16 10 3 3 2 2 3 5 8 6 6 9 8 5 6 6 6 5 5 5 6 5 2 2 3 4 4 5 5 4 4 5 5 5 5 4 6 5 4 4 3 4 5 5 6 5 6 5 5 6 6 5 5 5 5 4 4 4 4 3 3 2
2 11 17 15 15 14 14 15 15 13 17 10 11 16 16 19 15 10 14 4 9 6 13 7 17 2 4 4 2 3 4 6 5 4 3 7 7 7 5 4 5 4 6 5 5 3 4 4 3 4 5 4 5 5 5 5 5 5 5 6 4 5 4 3 3 4 5 5 6 6 6 5 5 6 6 5 5 5 4 4 4 3 2 3 3 2
4 8 13 19 26 25 27 28 28 25 16 19 17 20 21 20 21 17 8 8 16 7 13 21 11 6 0 4 4 6 4 7 5 4 3 4 5 6 5 4 3 4 4 5 4 4 4 4 6 5 5 6 6 5 5 5 6 5 5 5 4 4 4 5 5 5 5 5 5 6 6 6 6 5 6 5 5 4 4 4 3 3 3 2 3 4
4 9 15 14 18 15 5 3 3 14 18 17 19 23 20 18 15 16 15 21 16 9 13 13 4 4 4 6 8 8 9 3 3 5 6 5 4 4 3 4 5 3 4 3 4 5 7 6 5 6 7 6 7 5 5 5 6 6 6 7 5 5 5 5 5 5 5 5 5 6 6 5 4 5 5 5 5 5 4 4 3 3 2 3 3 4
12 14 16 15 18 6 6 11 17 16 18 21 23 20 20 14 12 17 21 18 10 10 20 12 7 4 5 7 9 12 3 1 4 5 4 4 6 5 4 4 4 5 5 5 6 6 6 8 7 6 6 7 5 7 7 7 6 5 5 5 5 5 6 5 6 6 6 5 6 6 5 5 4 4 5 5 5 5 4 4 3 3 3 4 4 4
8 11 7 9 8 4 4 12 15 16 12 11 14 16 18 23 25 25 24 24 16 14 21 9 12 18 15 14 12 12 3 7 4 2 1 2 4 5 5 6 6 7 6 7 8 6 6 7 7 6 5 6 7 8 8 7 7 7 7 7 6 6 5 6 7 7 7 7 6 5 5 5 5 6 5 5 5 5 4 3 4 4 4 4 4 4
13 6 15 7 7 4 5 6 12 17 15 14 12 12 15 16 19 23 23 20 15 17 20 12 11 19 12 11 8 7 11 5 3 3 4 5 5 6 6 6 7 7 8 8 7 8 8 7 7 6 7 9 9 10 9 9 7 5 6 7 7 7 7 7 7 7 7 7 6 5 5 6 6 6 6 5 4 4 4 5 4 4 4 4 4 4
12 5 9 7 10 4 2 9 13 17 17 16 15 15 14 16 17 17 18 18 15 22 27 22 17 18 9 9 6 6 11 16 15 9 7 9 9 8 7 9 8 9 8 9 9 8 8 8 8 9 11 12 11 9 9 10 9 7 10 8 8 8 7 8 8 8 8 6 6 6 7 7 6 6 5 5 6 6 6 5 5 5 5 5 5 4
14 9 11 11 13 13 9 10 14 11 8 9 15 19 22 22 22 22 24 23 22 20 20 17 19 23 11 8 9 13 14 13 12 16 16 13 12 11 11 11 12 10 11 11 10 9 9 9 10 11 11 9 11 11 13 11 7 11 12 11 9 7 9 9 9 8 8 7 7 7 7 7 7 6 6 6 6 6 5 6 6 6 6 6 5 3
12 12 9 11 14 13 10 9 10 11 17 20 19 27 29 29 28 25 22 23 19 18 17 18 19 3 10 13 18 15 13 18 19 17 15 15 14 10 10 10 10 11 11 11 10 9 9 9 10 11 13 14 13 13 8 7 11 10 4 4 6 9 9 9 9 9 8 7 8 8 8 7 8 8 7 6 6 6 6 7 8 6 5 4 4 5
18 16 11 9 10 8 9 11 11 18 18 17 19 15 21 23 21 24 22 21 18 17 19 22 18 15 14 12 12 12 12 11 7 11 16 17 16 15 18 20 18 15 11 9 8 8 11 13 12 11 10 11 13 8 6 7 9 7 5 7 8 7 9 9 9 8 8 9 8 8 8 8 8 8 7 7 6 7 7 7 6 6 6 5 6 6
16 17 7 6 5 5 9 12 14 15 7 4 5 8 6 5 7 8 18 19 19 23 25 28 29 21 10 6 6 6 8 10 9 12 17 17 14 15 16 17 17 15 16 16 12 14 14 14 14 13 14 11 7 6 8 11 8 7 7 5 7 7 8 9 9 9 8 9 10 10 9 9 9 8 8 8 8 8 8 8 8 7 5 4 4 3
18 13 12 8 5 14 11 14 12 3 1 1 8 7 15 17 19 22 21 27 28 20 16 17 21 18 13 16 7 3 1 1 4 15 16 12 7 6 8 12 14 16 17 16 14 17 18 14 8 11 9 7 7 7 10 9 7 8 6 7 7 8 8 9 10 11 12 12 11 11 11 11 10 10 10 10 9 9 9 9 8 6 5 5 5 4
9 17 10 14 6 4 13 10 8 6 14 10 14 12 22 23 16 8 6 17 3 12 17 21 25 26 23 13 5 5 3 2 12 20 16 7 9 14 13 13 16 17 17 17 17 15 14 12 8 7 9 9 6 8 6 5 8 9 9 8 6 7 8 10 12 12 12 13 12 11 11 11 11 11 11 10 11 11 8 7 4 5 5 6 6 4
0 1 8 16 9 7 10 14 11 13 16 14 21 14 10 7 14 12 5 18 12 15 19 23 25 25 16 8 9 8 7 11 19 22 3 15 14 15 17 21 21 19 17 17 17 16 16 15 10 6 5 6 8 10 8 7 7 9 10 9 9 9 9 12 13 12 14 14 11 11 11 11 11 10 10 11 11 9 9 8 7 4 5 4 4 5
12 8 5 10 11 10 11 11 12 7 11 9 9 11 12 16 16 13 12 14 24 17 14 15 22 23 16 9 11 12 14 15 21 17 10 11 15 16 17 17 16 14 15 17 15 14 15 13 4 4 6 9 13 9 8 8 9 10 12 12 10 10 13 14 16 16 10 7 9 10 10 10 11 11 11 11 9 8 7 5 5 6 6 5 4 5
6 4 8 15 10 11 15 6 2 5 3 1 13 15 16 16 16 15 16 21 6 14 16 17 19 20 9 10 12 13 16 20 21 18 5 3 1 9 12 12 14 14 16 16 17 16 14 14 11 12 12 10 7 4 6 7 8 11 12 11 11 14 16 17 11 6 9 9 9 11 12 11 12 13 11 9 8 6 5 6 6 6 6 6 5 4
3 2 2 4 10 13 10 11 9 3 4 5 4 19 17 14 12 16 18 4 8 11 13 16 18 12 11 17 16 18 21 20 18 9 1 7 10 12 10 9 9 9 9 8 11 10 11 12 10 9 6 6 8 8 8 10 11 13 10 8 14 17 17 10 7 8 8 11 11 11 11 11 10 9 9 7 7 8 6 5 5 6 6 5 6 6
6 6 5 8 3 3 4 8 4 11 3 12 14 10 15 14 11 10 2 2 1 5 8 9 13 13 13 15 15 15 14 9 8 11 12 8 8 12 11 8 7 9 12 12 11 11 10 11 13 12 11 8 8 8 9 11 13 13 10 13 17 14 10 6 7 8 8 9 10 10 11 10 11 10 8 9 8 8 7 6 6 7 7 7 7 7
3 5 1 1 2 6 8 9 6 1 3 6 19 14 12 2 1 2 3 2 1 3 7 8 8 7 8 12 13 12 12 13 12 10 10 8 9 12 9 6 6 7 9 10 10 11 7 9 10 11 10 7 6 7 8 11 12 11 12 16 15 8 5 7 7 7 8 8 8 8 8 9 9 9 8 9 8 8 8 8 7 7 6 7 7 7
1 4 2 7 4 4 3 2 1 2 1 3 2 4 2 1 2 1 2 2 2 1 0 4 9 7 8 10 10 10 10 11 15 14 9 8 6 8 11 12 9 11 12 13 13 10 7 11 12 10 9 6 6 6 8 9 12 12 13 14 7 8 8 8 8 9 8 9 8 8 7 7 8 9 9 9 10 10 10 9 9 8 7 7 7 7
5 1 0 4 1 2 3 3 1 1 3 2 2 2 2 3 4 2 4 4 1 0 5 2 2 3 3 2 1 4 4 5 5 8 7 8 9 9 7 8 9 8 8 9 11 11 10 8 7 8 10 9 6 7 8 9 10 13 14 10 8 8 8 9 9 9 10 8 8 9 9 10 9 9 9 10 9 9 8 10 9 8 7 7 7 7
2 1 2 2 2 6 6 1 3 2 2 2 5 4 1 1 2 1 2 1 1 2 1 1 1 1 1 5 6 6 7 7 7 8 6 6 8 9 8 9 11 9 8 10 13 8 6 6 8 9 9 11 7 8 9 10 10 13 8 4 5 7 7 8 9 9 9 10 9 9 10 12 10 10 9 10 8 7 7 8 8 7 8 7 7 7
2 2 1 2 1 4 1 2 1 1 2 2 1 2 5 4 4 4 5 4 0 1 1 2 3 2 2 2 5 5 7 5 5 8 6 5 7 7 7 8 10 9 10 9 9 5 5 5 8 9 9 11 12 6 7 8 11 10 6 4 6 8 9 10 10 11 11 11 10 10 11 11 12 12 10 10 10 10 9 8 9 9 10 10 10 10
3 1 1 2 1 4 3 2 1 4 7 8 6 4 5 5 5 8 3 0 2 2 3 4 5 5 4 6 3 4 4 7 6 7 7 6 5 6 8 9 8 9 9 8 7 5 8 7 8 10 9 13 10 5 6 8 8 5 7 7 8 9 11 11 10 9 9 9 9 9 9 9 10 10 9 9 8 6 6 9 9 9 6 3 4 4
1 2 2 3 1 1 3 5 1 1 1 2 4 7 7 3 2 4 6 7 5 5 5 4 3 5 6 5 5 4 5 8 5 4 7 7 7 7 8 8 8 7 9 8 6 5 6 8 8 9 9 11 6 4 6 6 6 5 5 6 7 9 11 10 9 9 10 10 10 9 9 9 9 8 9 9 9 8 5 4 5 5 6 4 3 6
1 4 2 3 3 2 4 6 4 4 1 2 1 4 6 7 4 5 5 6 7 6 4 3 7 6 3 5 5 5 6 6 11 5 4 6 9 8 9 8 8 7 7 5 5 7 8 8 6 6 9 11 4 5 5 5 4 5 4 5 6 8 8 9 9 8 8 9 9 10 10 9 9 8 8 8 8 8 8 6 5 5 9 11 8 8
Wind_Direction
147 171 187 199 198 186 178 187 155 156 167 177 183 190 210 208 263 305 240 238 201 100 215 215 231 245 256 242 245 254 57 256 252 251 240 236 230 228 231 232 231 229 230 232 228 215 211 212 211 210 203 207 208 210 206 204 207 203 200 191 206 200 195 192 191 193 193 198 204 219 218 222 212 214 215 222 221 221 224 220 219 218 217 216 215 217
163 194 210 202 178 173 175 177 148 130 160 166 184 189 213 184 231 236 211 252 232 172 265 235 250 257 250 259 259 270 296 263 248 246 241 234 227 226 224 232 232 233 250 260 238 223 211 207 209 204 205 199 203 213 207 209 208 204 200 202 205 194 198 199 196 194 197 199 200 198 210 210 212 210 211 225 222 223 224 221 222 222 220 217 216 213
191 209 208 185 162 154 167 178 181 160 171 179 184 195 199 224 204 286 251 317 254 157 265 152 242 254 252 257 263 250 243 246 241 232 241 230 230 228 225 230 236 239 240 223 236 231 215 211 207 200 207 209 209 206 207 212 206 206 206 209 202 200 198 202 199 195 202 200 204 200 206 200 218 219 216 225 227 216 221 223 223 222 221 221 221 215
193 221 179 152 150 156 171 180 175 170 175 178 175 167 213 141 159 256 284 34 213 162 252 160 288 275 264 253 254 248 239 246 238 235 237 225 232 229 226 219 222 229 233 225 223 226 215 209 206 202 207 211 204 207 212 210 209 208 211 208 204 204 200 201 202 202 203 199 201 207 200 202 201 206 209 220 225 219 215 226 219 222 219 217 223 219
194 138 141 147 150 157 169 179 179 178 200 212 190 192 189 178 192 160 222 57 343 300 50 331 306 286 237 250 259 251 245 250 254 247 252 251 237 240 251 237 217 223 221 224 225 230 220 211 210 207 210 203 203 209 210 206 207 209 209 208 204 202 201 203 200 200 194 186 194 197 202 167 221 255 215 217 234 222 222 226 219 222 209 216 220 218
174 141 126 141 157 164 165 184 194 178 204 206 220 189 198 163 171 84 132 110 34 317 328 130 332 281 294 258 248 279 344 256 239 231 251 245 241 231 236 238 235 231 222 218 217 217 213 209 212 213 213 206 210 213 214 207 209 208 210 207 205 204 203 204 201 194 188 192 190 184 195 208 210 222 213 220 224 215 218 224 224 213 207 214 220 218
171 174 152 154 162 167 180 193 188 165 198 188 216 165 199 177 158 148 147 94 205 207 291 9 186 272 338 293 254 263 245 261 264 229 246 244 243 231 231 233 232 228 230 233 231 226 219 217 211 213 211 209 211 218 212 208 210 209 210 205 202 203 205 200 197 188 188 196 201 201 205 207 209 220 229 227 227 220 223 217 219 218 203 209 213 219
137 165 153 165 167 174 186 201 187 181 174 214 168 162 140 124 153 182 161 159 190 244 317 44 122 247 301 272 227 254 260 264 267 251 246 245 240 232 232 227 228 227 222 221 221 219 219 211 205 211 210 208 214 216 207 211 208 207 210 204 202 203 202 198 191 188 192 198 202 206 212 214 219 219 231 214 220 212 206 210 217 210 212 205 208 213
167 172 165 168 173 180 199 195 157 180 169 235 124 140 143 149 159 167 151 138 156 108 259 319 340 287 249 269 302 341 264 274 259 251 247 236 233 230 230 232 231 229 221 216 220 218 215 212 212 215 215 215 213 212 208 208 207 209 207 204 200 202 200 197 190 192 196 202 202 205 208 219 225 227 234 208 204 208 203 221 212 211 212 209 209 210
160 177 167 161 167 189 138 112 150 177 142 296 101 78 85 79 71 115 135 103 335 116 245 197 180 216 280 242 257 13 235 253 249 250 250 236 228 222 231 238 239 240 230 223 226 225 218 215 213 211 214 212 213 212 211 213 208 205 196 200 198 206 200 196 194 195 199 202 202 207 211 218 226 221 229 197 216 213 198 223 218 215 212 211 213 212
114 14 128 153 186 166 122 105 156 136 86 146 95 89 65 56 70 54 77 98 63 257 235 195 185 131 297 237 203 160 226 228 266 262 254 259 253 246 230 229 233 236 235 230 228 226 223 217 216 210 212 216 215 213 205 203 197 195 196 198 201 208 199 193 198 195 201 199 203 212 213 218 225 220 214 218 228 212 209 224 219 213 215 211 218 209
71 122 154 247 155 106 116 81 30 134 153 131 101 125 91 26 15 34 337 34 189 247 188 178 173 159 209 288 272 244 287 244 211 257 277 276 260 246 233 235 238 236 238 236 227 232 232 231 226 209 219 216 211 202 204 201 196 195 197 194 205 209 203 200 198 196 202 199 207 214 215 221 224 216 215 220 228 214 221 220 223 208 214 219 218 214
165 177 178 153 195 142 149 131 79 131 193 130 115 121 149 168 150 217 125 205 214 199 300 153 131 20 227 239 280 275 245 268 230 223 242 247 264 270 270 257 244 244 247 240 230 226 221 217 213 208 216 209 205 203 202 204 200 199 195 195 202 212 205 202 194 199 202 202 209 211 215 223 220 218 221 226 230 216 220 213 217 204 221 215 222 216
208 208 182 144 145 180 146 168 142 161 199 165 168 164 173 158 195 205 183 12 31 22 335 151 6 269 285 293 232 250 259 252 253 241 232 234 249 266 268 280 280 258 246 244 232 223 218 214 214 209 207 205 206 205 203 203 199 199 201 201 203 216 199 199 196 201 200 209 212 210 215 220 214 222 220 226 227 218 215 204 214 212 215 218 221 216
153 185 221 160 196 185 176 182 178 174 175 188 176 177 188 177 184 199 162 191 179 147 314 308 116 230 142 239 245 256 256 281 282 268 248 240 244 253 269 279 275 274 262 243 237 225 218 217 212 209 207 208 207 206 205 202 203 198 203 201 208 219 202 197 201 196 204 212 213 212 215 217 213 221 218 226 222 217 211 206 211 219 215 219 221 216
198 257 185 182 227 173 185 178 146 120 150 201 168 70 178 225 138 120 195 114 152 122 338 223 212 189 206 284 299 261 255 258 253 265 264 267 259 261 278 265 255 252 256 240 235 238 237 229 222 223 223 218 213 210 207 206 200 199 207 204 210 213 205 200 200 202 206 210 204 209 213 215 212 217 218 226 217 218 206 210 211 220 214 217 220 218
175 212 155 130 121 183 181 132 167 151 182 173 135 202 206 86 99 95 43 40 80 55 239 105 297 282 303 286 262 275 279 269 244 250 267 266 268 282 263 257 251 248 255 246 231 233 236 231 227 217 214 213 211 206 206 205 199 203 203 204 212 218 209 202 204 208 209 211 204 211 210 208 208 210 213 219 217 215 211 214 216 217 218 216 214 219
178 172 172 159 166 193 154 149 159 185 126 108 198 204 109 107 97 133 173 356 90 195 251 185 233 273 47 275 354 340 286 267 283 258 252 261 263 266 256 250 244 238 241 257 251 250 246 236 231 228 225 215 208 209 211 213 207 208 206 206 211 215 212 210 204 208 209 209 210 211 208 209 207 208 216 218 222 212 208 217 218 217 222 214 214 215
110 67 318 325 143 135 90 124 104 306 346 172 190 152 154 206 208 247 112 194 176 227 258 283 295 257 200 245 290 281 235 285 286 295 298 261 250 241 253 256 255 263 279 274 262 256 248 232 229 222 224 226 230 228 225 223 204 208 211 208 204 212 211 207 204 209 216 209 210 207 207 202 204 209 216 219 216 199 209 217 214 218 221 222 218 221
115 117 66 310 146 157 141 162 192 180 320 46 96 176 205 93 245 152 205 142 117 244 74 290 59 245 196 231 201 248 253 237 271 295 272 252 243 237 240 241 239 242 240 247 253 247 239 234 229 226 229 231 222 215 212 192 181 200 205 198 208 210 192 186 193 194 203 204 201 209 208 213 212 214 214 209 198 208 213 216 212 219 223 223 219 222
162 112 159 118 326 137 183 194 200 184 173 148 164 187 190 173 283 113 25 147 180 188 198 183 288 256 252 215 221 234 240 240 232 249 249 257 259 246 238 239 230 235 241 240 238 241 241 244 227 220 238 236 232 218 194 186 195 204 194 204 199 195 194 196 197 189 205 191 206 205 210 213 207 211 203 202 206 211 216 215 215 218 223 214 224 214
104 194 164 136 144 197 203 199 200 190 183 186 183 195 186 165 149 174 225 64 129 133 221 139 245 281 270 197 223 229 236 242 241 228 252 247 244 247 248 245 223 227 236 237 240 242 265 284 285 323 204 199 163 190 194 209 188 187 197 206 198 199 201 198 201 201 202 199 199 205 208 205 199 197 194 204 201 211 211 214 213 213 193 203 224 203
156 125 126 172 179 193 202 351 337 173 176 169 173 199 163 162 122 194 221 211 144 232 98 161 322 266 231 218 208 221 236 235 245 208 238 252 253 253 257 252 246 229 231 235 246 262 261 254 248 223 199 188 188 192 188 208 201 193 189 183 192 189 211 202 205 201 191 187 187 200 195 185 193 183 193 196 197 204 205 203 200 176 190 206 209 201
75 119 119 58 26 41 46 35 35 79 109 98 202 149 160 198 201 213 218 149 185 119 226 251 265 256 296 35 260 269 286 287 279 223 235 249 256 266 266 262 244 240 245 254 259 259 254 261 278 238 219 219 217 209 210 208 214 219 207 199 187 199 205 200 193 168 150 155 187 180 172 187 182 179 183 187 183 187 185 183 180 172 180 189 175 186
160 211 153 149 120 62 24 1 9 331 194 203 191 191 191 195 185 133 89 33 175 213 194 165 244 251 276 330 312 282 300 292 272 263 221 247 262 260 265 257 250 254 277 266 252 244 255 247 232 229 225 223 226 229 222 217 215 211 217 209 206 213 200 168 159 169 175 173 170 172 174 167 168 171 175 174 170 177 170 168 159 168 169 147 157 156
49 154 156 156 156 156 183 192 193 183 197 198 197 190 195 188 167 159 208 158 221 184 174 177 241 271 287 321 341 310 324 301 270 265 255 220 248 272 276 266 272 268 254 271 280 283 242 237 244 250 245 245 237 224 219 220 218 219 221 222 211 208 192 187 173 181 165 174 170 174 176 163 162 173 175 168 172 175 170 163 146 135 116 155 152 128
146 177 196 180 176 185 192 198 194 179 172 193 191 189 195 196 189 195 188 200 220 187 186 218 207 49 321 268 304 290 283 245 288 321 303 277 265 257 255 273 268 250 254 265 266 275 306 281 247 237 243 233 235 229 228 223 226 222 220 226 217 209 197 186 175 173 174 169 175 173 185 174 179 157 166 173 174 170 164 162 143 139 149 159 152 160
100 187 204 195 214 209 199 353 110 162 174 181 182 200 196 192 187 190 194 215 207 128 228 231 142 199 265 291 279 273 260 274 285 269 281 285 283 284 277 278 282 285 266 267 267 255 244 251 255 240 238 245 245 238 237 230 227 220 209 218 203 194 192 188 182 171 176 167 170 185 182 185 174 165 171 168 160 163 164 151 154 161 161 155 164 176
168 196 195 195 206 199 115 138 153 178 194 193 193 181 186 175 180 200 217 223 101 187 228 218 134 207 237 258 256 251 191 211 227 235 237 261 288 291 302 306 302 284 286 289 263 257 253 252 247 241 236 241 241 240 237 234 236 232 232 221 201 186 193 180 180 182 180 177 191 196 178 171 169 159 157 158 156 161 168 170 173 171 180 195 204 197
158 219 180 186 189 129 167 147 163 179 195 206 207 193 182 180 190 199 215 219 200 219 235 218 163 222 207 219 234 261 234 179 221 229 314 303 278 282 297 274 266 270 271 262 261 262 257 257 261 252 255 254 238 237 235 233 228 219 215 215 199 194 191 172 191 183 187 193 197 179 171 171 166 168 165 167 173 176 172 173 178 178 194 208 207 203
184 194 148 155 154 178 212 156 161 179 189 202 200 199 192 196 206 209 217 220 210 241 250 231 213 241 217 204 230 278 292 273 269 248 242 249 261 262 254 259 265 263 258 258 267 265 255 257 256 253 246 248 238 230 227 227 223 212 216 213 196 196 186 182 189 190 190 197 182 173 171 174 179 173 185 186 179 181 183 194 183 190 201 196 193 188
190 207 145 147 176 217 235 174 177 181 191 193 195 192 189 192 208 214 222 216 196 218 230 232 234 246 224 160 197 235 261 267 270 265 242 248 238 239 245 250 251 250 253 255 252 252 260 254 251 243 238 237 237 228 222 222 215 199 218 202 200 191 173 185 193 193 196 192 177 177 183 183 177 182 189 181 193 187 190 182 185 196 198 194 192 195
182 153 163 160 188 205 193 175 176 167 176 214 210 196 193 201 205 209 218 215 210 212 227 227 234 233 218 144 189 212 219 239 255 264 260 252 245 228 229 233 235 242 246 247 247 246 245 245 242 238 239 237 234 226 224 210 190 211 211 199 197 155 178 189 193 193 195 190 186 188 188 182 182 187 188 193 182 186 180 186 192 197 193 199 198 166
158 163 172 167 195 192 161 157 141 152 198 210 203 199 192 196 199 207 215 219 213 209 226 225 234 210 118 172 213 212 205 217 223 236 246 258 264 267 251 231 223 227 237 239 239 244 248 244 242 235 228 226 227 223 217 182 203 220 206 177 151 176 183 183 193 193 194 188 194 191 187 182 184 191 192 182 185 183 189 193 200 197 197 184 169 181
169 171 178 171 187 169 127 125 166 202 213 209 214 197 199 205 201 210 220 221 217 221 236 247 245 222 190 205 211 217 214 230 243 241 244 246 250 258 267 274 272 260 236 220 233 240 242 241 238 237 237 236 235 223 177 194 207 204 172 173 176 180 176 187 187 192 192 194 193 187 188 186 186 189 186 186 187 191 197 196 197 197 193 184 183 182
170 174 146 170 123 75 150 172 194 219 201 275 110 152 154 169 212 220 248 240 225 217 217 230 234 233 211 225 215 207 198 219 238 243 240 236 226 231 245 252 259 269 277 275 271 268 262 249 235 231 234 233 225 207 195 208 193 180 193 158 177 178 185 181 187 195 189 198 196 193 190 185 187 186 185 187 192 197 199 197 197 192 185 183 186 182
173 163 170 176 194 173 171 180 203 64 204 147 129 176 155 188 197 196 212 229 222 218 220 242 253 247 228 231 197 163 94 54 275 259 245 233 242 254 241 254 256 259 260 263 256 253 250 252 238 236 234 237 212 206 210 206 169 175 157 173 189 179 183 180 193 199 199 202 198 194 188 187 185 187 189 188 193 200 198 195 197 194 169 176 181 173
192 177 174 162 229 162 164 181 196 224 225 203 216 188 191 202 199 189 220 269 176 193 209 222 234 236 228 217 129 163 80 315 271 259 242 184 206 226 231 235 245 248 250 250 253 255 264 268 244 227 213 226 224 218 226 198 175 167 177 185 178 181 190 192 206 205 200 204 197 191 186 187 186 188 190 189 199 198 197 192 186 186 174 180 171 173
320 176 194 185 154 152 175 183 194 204 228 204 205 189 177 121 107 101 165 253 229 189 206 215 231 238 231 182 172 140 136 226 246 251 118 169 203 208 220 229 231 235 240 243 247 253 257 259 258 238 198 208 223 228 199 186 180 171 186 191 186 189 196 208 214 202 203 205 190 184 184 185 186 189 190 197 200 193 190 189 185 159 161 169 160 166
182 190 157 201 181 178 169 185 199 204 226 226 140 154 146 128 118 112 206 244 243 192 207 207 227 235 225 166 167 175 190 226 239 246 162 197 195 208 215 229 237 236 241 245 249 247 252 262 262 221 205 210 224 216 189 174 174 197 196 197 186 184 206 216 216 210 198 172 176 181 182 184 186 189 191 199 194 189 188 165 157 164 165 157 156 152
179 173 200 196 176 181 184 191 35 279 277 195 156 140 143 128 130 181 206 233 257 150 204 204 222 230 199 168 182 203 216 222 235 246 162 216 191 241 235 231 233 228 230 236 241 245 248 253 240 239 228 223 223 184 171 167 186 210 214 195 179 202 211 219 212 172 178 172 172 179 184 185 188 189 191 189 188 175 168 168 167 157 161 155 149 145
96 110 77 135 186 180 184 187 211 257 239 154 163 145 137 127 191 202 217 227 127 178 187 194 214 215 169 193 200 212 225 222 237 266 159 213 210 235 234 234 247 265 265 254 253 253 255 258 256 251 256 230 206 190 172 175 195 215 213 205 208 210 216 206 167 174 167 176 182 182 183 187 187 183 178 168 162 171 174 164 157 162 156 153 153 153
182 153 203 179 135 66 158 187 151 221 220 152 148 151 164 175 214 194 112 21 131 183 173 193 203 214 187 213 217 225 242 254 244 240 241 229 228 245 247 239 237 241 250 258 261 250 236 253 256 251 243 227 205 190 182 179 201 212 208 212 223 218 209 164 167 171 174 174 180 186 185 182 177 174 166 168 169 167 167 159 162 164 160 156 158 158
206 179 153 205 215 156 165 187 199 261 333 176 149 169 197 182 241 184 133 160 320 143 167 185 215 205 181 202 212 222 229 240 253 253 256 251 240 257 271 269 260 263 265 258 250 258 250 249 256 258 252 232 203 191 185 181 203 211 209 223 224 209 171 159 167 163 170 181 183 178 179 176 172 165 161 164 164 167 162 166 168 164 168 164 160 162
253 159 214 176 196 170 195 122 175 224 204 235 43 313 105 39 23 144 124 140 145 270 219 168 208 205 194 199 210 209 225 230 235 244 245 264 276 263 263 260 245 245 247 252 255 252 241 238 249 258 272 251 199 202 197 197 201 209 213 229 197 196 176 168 161 169 179 181 178 174 171 163 170 168 162 165 169 172 170 167 168 168 172 164 166 169
355 49 28 84 268 271 262 180 203 348 333 307 299 189 320 326 340 49 69 51 55 210 164 162 355 50 67 90 187 297 254 270 306 302 289 271 267 267 265 275 273 253 255 260 262 250 239 244 246 251 257 261 205 200 199 207 203 210 222 219 194 182 169 164 164 175 182 175 173 173 163 164 166 168 168 169 177 180 175 169 170 169 165 171 173 174
273 301 43 101 260 164 238 357 168 230 228 261 279 294 227 178 257 68 30 95 71 141 169 227 199 196 169 149 170 212 237 233 240 257 263 270 266 268 272 269 272 265 253 253 253 254 251 234 246 248 245 258 237 202 207 207 212 221 229 181 162 158 160 164 172 175 173 177 172 165 167 172 175 172 172 172 171 169 165 163 166 166 168 177 175 175
307 220 89 257 153 157 171 78 31 311 262 255 221 332 320 319 293 242 233 268 310 142 168 221 171 252 165 185 198 193 237 235 224 250 250 239 251 261 271 274 271 283 267 249 270 261 254 242 241 248 246 249 253 214 211 210 221 221 211 167 162 160 161 171 179 182 183 177 171 174 176 180 176 173 173 177 173 170 168 172 172 174 180 184 181 178
249 64 223 185 169 288 301 297 20 4 352 320 307 269 221 237 284 302 308 126 233 249 227 225 201 216 181 246 196 192 237 253 209 236 250 254 252 259 257 254 254 247 263 278 267 235 230 232 241 247 248 251 253 219 213 223 225 208 195 187 172 165 171 180 179 176 173 171 172 180 180 179 176 179 172 168 169 171 176 176 177 173 163 149 158 175
33 161 237 53 316 304 184 255 133 56 305 305 308 281 295 274 182 257 306 321 316 311 303 309 256 211 221 231 226 215 241 279 260 190 238 248 243 250 259 258 251 248 257 251 256 242 245 243 236 247 252 259 268 239 234 235 228 213 205 181 180 173 178 176 171 174 178 177 179 176 174 175 172 172 168 168 165 150 113 73 123 155 147 127 102 138
189 230 162 184 177 243 232 229 198 173 223 218 205 295 298 302 327 314 296 289 295 290 288 321 323 315 277 254 203 222 244 249 282 272 239 256 260 247 246 259 269 269 263 259 264 263 243 246 234 243 257 257 247 237 239 238 217 200 199 188 183 183 183 168 172 181 179 176 185 180 177 170 170 171 167 166 159 150 139 117 60 82 137 139 139 129